KLM1875 EHAM-EDDB

Flight info

Callsign KLM1875
Flight time 0h 59m
Altitude 37000
Route ANDIK M105 OPWOT Z612 GESTO DCT BUMIL L619 VIBIS T209 OGBER
Aircraft B738/M-SDE2E3FGHIRWXY/LB1

Departure

Time 2026-04-30 19:23
Airport Amsterdam Airport Schiphol (EHAM)

Arrival

Time 2026-04-30 20:23
Airport Berlin Brandenburg Airport (EDDB)
Time Latitude Longitude Altitude Speed Heading
2026-04-30 18:45 52.31409 4.77032 -4 ft 0 kts 302°
2026-04-30 19:11 52.31411 4.77031 -4 ft 0 kts 330°
2026-04-30 19:11 52.31414 4.77033 -4 ft 1 kts
2026-04-30 19:12 52.31415 4.77042 -4 ft 1 kts 73°
2026-04-30 19:12 52.31409 4.77053 -4 ft 3 kts 128°
2026-04-30 19:12 52.31390 4.77088 -4 ft 4 kts 133°
2026-04-30 19:13 52.31359 4.77148 -4 ft 1 kts 88°
2026-04-30 19:13 52.31370 4.77176 -4 ft 3 kts 34°
2026-04-30 19:13 52.31373 4.77179 -4 ft 0 kts 30°
2026-04-30 19:15 52.31375 4.77180 -4 ft 2 kts 30°
2026-04-30 19:16 52.31423 4.77193 -4 ft 10 kts
2026-04-30 19:16 52.31452 4.77191 -4 ft 4 kts 357°
2026-04-30 19:16 52.31547 4.77181 -4 ft 12 kts 329°
2026-04-30 19:17 52.31569 4.77031 -4 ft 17 kts 266°
2026-04-30 19:17 52.31553 4.76590 -4 ft 19 kts 266°
2026-04-30 19:17 52.31547 4.76375 -4 ft 19 kts 267°
2026-04-30 19:18 52.31537 4.76050 -4 ft 14 kts 267°
2026-04-30 19:18 52.31528 4.75838 -4 ft 14 kts 266°
2026-04-30 19:18 52.31523 4.75688 -4 ft 13 kts 267°
2026-04-30 19:19 52.31518 4.75541 -4 ft 13 kts 267°
2026-04-30 19:19 52.31513 4.75386 -4 ft 14 kts 266°
2026-04-30 19:19 52.31497 4.74965 -4 ft 22 kts 266°
2026-04-30 19:20 52.31490 4.74767 -4 ft 13 kts 274°
2026-04-30 19:20 52.31550 4.74668 -4 ft 13 kts 346°
2026-04-30 19:20 52.31664 4.74688 -2 ft 4 kts 50°
2026-04-30 19:21 52.31668 4.74720 -3 ft 0 kts 85°
2026-04-30 19:22 52.31750 4.77911 393 ft 167 kts 90°
2026-04-30 19:23 52.32050 4.83753 2807 ft 197 kts 90°
2026-04-30 19:24 52.32333 4.88582 3666 ft 225 kts 88°
2026-04-30 19:24 52.32862 4.91044 4280 ft 237 kts 63°
2026-04-30 19:24 52.35361 4.94611 5589 ft 257 kts 19°
2026-04-30 19:25 52.41081 4.94715 6290 ft 281 kts
2026-04-30 19:26 52.44939 4.94525 6937 ft 279 kts
2026-04-30 19:26 52.48833 4.94340 7921 ft 284 kts
2026-04-30 19:26 52.50815 4.94252 8422 ft 286 kts
2026-04-30 19:27 52.54701 4.94987 9389 ft 286 kts 38°
2026-04-30 19:27 52.56297 4.97467 10254 ft 283 kts 52°
2026-04-30 19:28 52.57649 4.99896 10782 ft 296 kts 52°
2026-04-30 19:28 52.60714 5.05243 11134 ft 344 kts 50°
2026-04-30 19:29 52.64245 5.11129 11817 ft 372 kts 49°
2026-04-30 19:29 52.66091 5.14155 12496 ft 375 kts 48°
2026-04-30 19:30 52.71694 5.23346 14402 ft 386 kts 49°
2026-04-30 19:30 52.74435 5.30748 15547 ft 380 kts 79°
2026-04-30 19:31 52.75420 5.39359 16723 ft 385 kts 83°
2026-04-30 19:31 52.75872 5.43740 17276 ft 388 kts 83°
2026-04-30 19:31 52.76792 5.52605 18377 ft 395 kts 82°
2026-04-30 19:32 52.77267 5.57087 18884 ft 398 kts 82°
2026-04-30 19:32 52.77750 5.61604 19343 ft 401 kts 82°
2026-04-30 19:32 52.78232 5.66092 19797 ft 404 kts 82°
2026-04-30 19:32 52.78727 5.70686 20252 ft 408 kts 82°
2026-04-30 19:33 52.79225 5.75320 20707 ft 411 kts 82°
2026-04-30 19:33 52.79725 5.79985 21122 ft 414 kts 81°
2026-04-30 19:33 52.80229 5.84696 21562 ft 418 kts 81°
2026-04-30 19:33 52.80733 5.89437 21983 ft 421 kts 81°
2026-04-30 19:34 52.81240 5.94218 22390 ft 424 kts 81°
2026-04-30 19:34 52.81749 5.99034 22789 ft 427 kts 81°
2026-04-30 19:34 52.82772 6.08784 23592 ft 433 kts 81°
2026-04-30 19:35 52.83285 6.13707 23967 ft 436 kts 81°
2026-04-30 19:35 52.83801 6.18673 24305 ft 438 kts 81°
2026-04-30 19:35 52.84316 6.23663 24646 ft 440 kts 81°
2026-04-30 19:35 52.84831 6.28659 24994 ft 442 kts 81°
2026-04-30 19:36 52.85346 6.33689 25322 ft 444 kts 81°
2026-04-30 19:36 52.85863 6.38755 25557 ft 448 kts 81°
2026-04-30 19:36 52.86889 6.48884 26199 ft 450 kts 81°
2026-04-30 19:37 52.87405 6.54005 26527 ft 451 kts 81°
2026-04-30 19:37 52.87918 6.59128 26852 ft 451 kts 81°
2026-04-30 19:37 52.88431 6.64265 27185 ft 452 kts 81°
2026-04-30 19:37 52.88940 6.69394 27513 ft 452 kts 81°
2026-04-30 19:38 52.89449 6.74540 27856 ft 452 kts 81°
2026-04-30 19:38 52.89955 6.79680 28202 ft 451 kts 81°
2026-04-30 19:38 52.90457 6.84806 28547 ft 451 kts 81°
2026-04-30 19:38 52.90955 6.89921 28893 ft 449 kts 81°
2026-04-30 19:39 52.91450 6.95020 29247 ft 448 kts 81°
2026-04-30 19:39 52.91942 7.00116 29617 ft 448 kts 81°
2026-04-30 19:39 52.92432 7.05208 29983 ft 447 kts 80°
2026-04-30 19:39 52.92918 7.10296 30350 ft 447 kts 80°
2026-04-30 19:40 52.93402 7.15378 30689 ft 446 kts 80°
2026-04-30 19:40 52.93883 7.20455 30996 ft 446 kts 80°
2026-04-30 19:40 52.94363 7.25537 31318 ft 445 kts 80°
2026-04-30 19:40 52.94838 7.30599 31640 ft 444 kts 80°
2026-04-30 19:41 52.95305 7.35599 31964 ft 443 kts 80°
2026-04-30 19:41 52.95780 7.40707 32295 ft 442 kts 80°
2026-04-30 19:41 52.96240 7.45680 32627 ft 441 kts 80°
2026-04-30 19:41 52.96704 7.50709 32964 ft 440 kts 80°
2026-04-30 19:42 52.97163 7.55722 33307 ft 439 kts 80°
2026-04-30 19:42 52.97619 7.60717 33646 ft 437 kts 80°
2026-04-30 19:42 52.98071 7.65701 33997 ft 435 kts 80°
2026-04-30 19:42 52.98520 7.70662 34356 ft 433 kts 80°
2026-04-30 19:43 52.98963 7.75594 34677 ft 431 kts 80°
2026-04-30 19:43 52.99403 7.80509 34975 ft 429 kts 80°
2026-04-30 19:43 52.99838 7.85401 35291 ft 427 kts 80°
2026-04-30 19:44 53.00695 7.95087 35927 ft 421 kts 80°
2026-04-30 19:44 53.01116 7.99884 36254 ft 418 kts 80°
2026-04-30 19:44 53.01533 8.04658 36577 ft 415 kts 80°
2026-04-30 19:44 53.01938 8.09321 36902 ft 412 kts 80°
2026-04-30 19:45 53.02344 8.14013 37232 ft 408 kts 80°
2026-04-30 19:45 53.02751 8.18726 37417 ft 409 kts 80°
2026-04-30 19:45 53.03149 8.23371 37412 ft 412 kts 80°
2026-04-30 19:46 53.03961 8.32886 37429 ft 419 kts 81°
2026-04-30 19:46 53.04778 8.42572 37429 ft 426 kts 81°
2026-04-30 19:47 53.05599 8.52420 37436 ft 433 kts 81°
2026-04-30 19:47 53.06426 8.62428 37439 ft 440 kts 81°
2026-04-30 19:48 53.07255 8.72576 37436 ft 446 kts 81°
2026-04-30 19:48 53.08083 8.82827 37431 ft 449 kts 81°
2026-04-30 19:49 53.08768 8.91397 37428 ft 450 kts 81°
2026-04-30 19:49 53.09993 9.06927 37425 ft 450 kts 81°
2026-04-30 19:50 53.10796 9.17243 37420 ft 449 kts 81°
2026-04-30 19:50 53.11588 9.27538 37420 ft 448 kts 81°
2026-04-30 19:51 53.12365 9.37751 37419 ft 447 kts 81°
2026-04-30 19:51 53.13135 9.47999 37425 ft 446 kts 81°
2026-04-30 19:52 53.13896 9.58246 37425 ft 445 kts 81°
2026-04-30 19:52 53.14647 9.68473 37430 ft 444 kts 81°
2026-04-30 19:53 53.15388 9.78692 37428 ft 444 kts 81°
2026-04-30 19:53 53.16120 9.88901 37433 ft 443 kts 81°
2026-04-30 19:54 53.16843 9.99099 37435 ft 443 kts 81°
2026-04-30 19:54 53.17472 10.09330 37427 ft 445 kts 87°
2026-04-30 19:55 53.17129 10.19651 37433 ft 446 kts 92°
2026-04-30 19:55 53.16627 10.29964 37431 ft 446 kts 92°
2026-04-30 19:56 53.16149 10.40292 37430 ft 447 kts 91°
2026-04-30 19:56 53.15694 10.50575 37202 ft 450 kts 91°
2026-04-30 19:57 53.15464 10.55797 36641 ft 452 kts 91°
2026-04-30 19:57 53.15232 10.60995 36140 ft 449 kts 91°
2026-04-30 19:57 53.14998 10.66183 35638 ft 446 kts 92°
2026-04-30 19:57 53.14763 10.71338 35153 ft 447 kts 92°
2026-04-30 19:58 53.14525 10.76498 34672 ft 447 kts 92°
2026-04-30 19:58 53.14285 10.81665 34167 ft 447 kts 92°
2026-04-30 19:58 53.14046 10.86761 33630 ft 447 kts 92°
2026-04-30 19:58 53.13802 10.91918 33107 ft 447 kts 92°
2026-04-30 19:59 53.13555 10.97091 32585 ft 448 kts 91°
2026-04-30 19:59 53.13305 11.02258 32075 ft 449 kts 91°
2026-04-30 19:59 53.12799 11.12644 31084 ft 451 kts 91°
2026-04-30 20:00 53.12542 11.17852 30602 ft 452 kts 91°
2026-04-30 20:00 53.12267 11.23076 30052 ft 454 kts 94°
2026-04-30 20:00 53.11643 11.28264 29489 ft 460 kts 102°
2026-04-30 20:00 53.10560 11.33292 28934 ft 465 kts 111°
2026-04-30 20:01 53.07406 11.42759 27882 ft 468 kts 116°
2026-04-30 20:01 53.05802 11.47483 27361 ft 469 kts 115°
2026-04-30 20:01 53.04233 11.52236 26845 ft 468 kts 113°
2026-04-30 20:02 53.02060 11.62309 25860 ft 461 kts 100°
2026-04-30 20:02 53.01268 11.67463 25522 ft 460 kts 101°
2026-04-30 20:03 52.99602 11.77652 25429 ft 459 kts 101°
2026-04-30 20:03 52.98924 11.82797 25420 ft 453 kts 94°
2026-04-30 20:03 52.98709 11.87990 25429 ft 450 kts 88°
2026-04-30 20:03 52.98611 11.93171 25422 ft 450 kts 88°
2026-04-30 20:04 52.98509 11.98377 25424 ft 451 kts 88°
2026-04-30 20:04 52.98390 12.03582 25426 ft 451 kts 89°
2026-04-30 20:04 52.98254 12.08783 25426 ft 451 kts 89°
2026-04-30 20:05 52.97957 12.19191 25429 ft 452 kts 89°
2026-04-30 20:05 52.97801 12.24409 25427 ft 452 kts 90°
2026-04-30 20:05 52.95682 12.34299 25438 ft 469 kts 121°
2026-04-30 20:06 52.93476 12.38342 25419 ft 479 kts 136°
2026-04-30 20:06 52.90784 12.41449 25414 ft 471 kts 143°
2026-04-30 20:06 52.88078 12.44394 25095 ft 458 kts 141°
2026-04-30 20:06 52.85467 12.47351 24551 ft 452 kts 141°
2026-04-30 20:07 52.82892 12.50314 23895 ft 450 kts 140°
2026-04-30 20:07 52.80330 12.53267 23155 ft 447 kts 140°
2026-04-30 20:07 52.75308 12.58999 21713 ft 430 kts 140°
2026-04-30 20:08 52.72877 12.61748 21520 ft 415 kts 140°
2026-04-30 20:08 52.70554 12.64360 21340 ft 393 kts 140°
2026-04-30 20:08 52.68327 12.66866 20531 ft 391 kts 140°
2026-04-30 20:08 52.66009 12.69479 19788 ft 387 kts 140°
2026-04-30 20:09 52.63882 12.71874 19105 ft 384 kts 140°
2026-04-30 20:09 52.61687 12.74342 18364 ft 380 kts 140°
2026-04-30 20:09 52.57357 12.79198 16803 ft 373 kts 140°
2026-04-30 20:10 52.53110 12.83945 15314 ft 365 kts 141°
2026-04-30 20:10 52.51021 12.86276 14778 ft 356 kts 141°
2026-04-30 20:10 52.48950 12.88411 14217 ft 350 kts 144°
2026-04-30 20:11 52.44737 12.92229 12909 ft 341 kts 146°
2026-04-30 20:11 52.42654 12.94059 12281 ft 338 kts 148°
2026-04-30 20:11 52.40387 12.95127 11622 ft 346 kts 174°
2026-04-30 20:12 52.36234 12.92027 10994 ft 333 kts 232°
2026-04-30 20:12 52.35039 12.88855 10759 ft 320 kts 243°
2026-04-30 20:12 52.33832 12.85873 10324 ft 316 kts 226°
2026-04-30 20:13 52.32258 12.83417 9909 ft 310 kts 221°
2026-04-30 20:13 52.30638 12.81090 9297 ft 312 kts 220°
2026-04-30 20:13 52.28990 12.78754 8661 ft 314 kts 219°
2026-04-30 20:13 52.27162 12.76993 8334 ft 299 kts 191°
2026-04-30 20:14 52.25175 12.76987 8076 ft 278 kts 158°
2026-04-30 20:14 52.23550 12.78473 7843 ft 263 kts 136°
2026-04-30 20:14 52.22292 12.80602 7605 ft 260 kts 122°
2026-04-30 20:14 52.21476 12.83201 7360 ft 257 kts 103°
2026-04-30 20:15 52.21467 12.86040 7098 ft 252 kts 69°
2026-04-30 20:15 52.22305 12.88531 6891 ft 251 kts 59°
2026-04-30 20:15 52.23134 12.91032 6629 ft 250 kts 64°
2026-04-30 20:15 52.23828 12.93621 6369 ft 248 kts 67°
2026-04-30 20:16 52.24459 12.96236 6102 ft 248 kts 68°
2026-04-30 20:16 52.25065 12.98827 5848 ft 247 kts 69°
2026-04-30 20:16 52.25675 13.01444 5587 ft 247 kts 69°
2026-04-30 20:16 52.26290 13.04080 5234 ft 249 kts 69°
2026-04-30 20:17 52.26908 13.06726 4941 ft 249 kts 69°
2026-04-30 20:17 52.27526 13.09362 4651 ft 248 kts 68°
2026-04-30 20:17 52.28144 13.12000 4376 ft 248 kts 68°
2026-04-30 20:17 52.28757 13.14617 4137 ft 244 kts 68°
2026-04-30 20:18 52.29339 13.17103 4044 ft 225 kts 68°
2026-04-30 20:18 52.29883 13.19415 3832 ft 212 kts 68°
2026-04-30 20:18 52.30402 13.21621 3572 ft 203 kts 68°
2026-04-30 20:18 52.30896 13.23716 3315 ft 193 kts 68°
2026-04-30 20:19 52.31371 13.25728 3056 ft 186 kts 67°
2026-04-30 20:19 52.31673 13.27008 2907 ft 179 kts 68°
2026-04-30 20:19 52.32245 13.29433 2579 ft 163 kts 67°
2026-04-30 20:19 52.32647 13.31133 2393 ft 162 kts 67°
2026-04-30 20:20 52.33050 13.32835 2202 ft 160 kts 67°
2026-04-30 20:20 52.33455 13.34547 1972 ft 160 kts 67°
2026-04-30 20:20 52.33837 13.36162 1781 ft 146 kts 67°
2026-04-30 20:20 52.34189 13.37650 1575 ft 136 kts 66°
2026-04-30 20:21 52.34529 13.39082 1410 ft 135 kts 66°
2026-04-30 20:21 52.34873 13.40534 1224 ft 137 kts 66°
2026-04-30 20:21 52.35215 13.41984 1053 ft 136 kts 66°
2026-04-30 20:21 52.35556 13.43435 892 ft 137 kts 67°
2026-04-30 20:22 52.35905 13.44895 692 ft 137 kts 68°
2026-04-30 20:22 52.36254 13.46339 494 ft 136 kts 68°
2026-04-30 20:22 52.36588 13.47760 294 ft 135 kts 72°
2026-04-30 20:22 52.36923 13.49149 158 ft 123 kts 70°
2026-04-30 20:23 52.37177 13.50227 157 ft 72 kts 69°
2026-04-30 20:23 52.37297 13.50778 156 ft 34 kts 82°
2026-04-30 20:23 52.37295 13.51123 160 ft 22 kts 98°
2026-04-30 20:23 52.37276 13.51313 161 ft 0 kts 108°
2026-04-30 20:24 52.37273 13.51325 161 ft 2 kts 114°
2026-04-30 20:24 52.37246 13.51358 160 ft 7 kts 171°
2026-04-30 20:24 52.37199 13.51291 159 ft 12 kts 244°
2026-04-30 20:24 52.37159 13.51138 158 ft 17 kts 250°
2026-04-30 20:25 52.37063 13.50736 157 ft 19 kts 248°
2026-04-30 20:25 52.37018 13.50542 155 ft 18 kts 250°
2026-04-30 20:26 52.36927 13.50172 152 ft 17 kts 237°
2026-04-30 20:26 52.36717 13.50227 152 ft 16 kts 159°
2026-04-30 20:26 52.36617 13.50293 152 ft 15 kts 158°
2026-04-30 20:27 52.36432 13.50411 152 ft 10 kts 158°
2026-04-30 20:27 52.36424 13.50536 153 ft 3 kts 68°
2026-04-30 20:28 52.36428 13.50552 153 ft 0 kts 68°